Location: Albany
(35.0170°S, 117.8920°E)
Time: 04:03:46
(UTC+08:00)

Vanguard 1 - Pass Details

Date: 30 January 2021
Orbit: 649 x 3833 km, 34.2° (Epoch: 26 February)

Event Time Altitude Azimuth Distance (km) Brightness Sun altitude
Rises 20:54:04 0° 328° (NNW) 6,826 14.3 -18.0°
Reaches altitude 10° 21:00:19 10° 339° (NNW) 5,233 13.6 -19.0°
Enters shadow 21:10:26 25° 25° (NNE) 3,093 12.0 -20.6°
Maximum altitude 21:10:32 25° 26° (NNE) 3,083 - -20.6°
Drops below altitude 10° 21:17:12 10° 77° (ENE) 3,316 - -21.6°
Sets 21:20:04 0° 91° (E) 3,946 - -22.1°
